EHI
0 0 0 1 2 1 1 1 1 1 1 2 4 7 11 14 16 19 21 22 18 14 13 14 16 18 15 12 13 17 19 21 23 23 19 15 13 13 13 12 10 8 8 9
0 0 1 2 3 3 2 2 2 2 3 5 7 10 14 18 21 24 26 24 20 15 13 15 19 21 19 15 13 15 17 19 19 19 17 14 13 12 12 11 10 7 7 8
0 0 1 2 2 2 3 3 4 4 5 9 13 14 16 21 26 30 30 26 23 20 16 17 22 25 24 20 17 17 16 15 15 14 13 12 12 12 12 11 9 7 6 6
0 0 0 0 0 1 1 3 4 5 7 12 16 16 15 19 27 32 32 28 27 26 22 21 24 27 27 26 24 22 19 16 14 12 10 10 11 13 13 11 10 8 6 6
0 0 0 0 0 0 1 2 4 6 10 15 17 16 13 16 23 30 31 31 32 31 27 26 28 29 30 31 29 26 23 19 15 11 9 7 9 11 12 13 11 9 7 6
0 0 0 0 1 1 1 2 3 7 12 15 15 13 11 15 21 26 29 33 35 34 30 28 29 30 31 31 28 25 22 19 14 11 8 7 7 8 11 13 12 9 7 5
0 0 0 1 2 2 1 1 4 8 11 13 14 14 15 19 25 30 33 36 38 37 34 29 27 28 29 27 23 21 19 16 13 10 8 6 5 6 8 10 10 9 7 6
0 0 0 1 2 1 0 2 7 10 12 15 18 20 23 27 32 38 42 41 39 38 35 29 26 26 25 22 19 18 17 14 11 9 6 4 3 3 4 5 6 6 6 6
0 1 1 1 2 2 1 4 9 13 15 19 22 23 26 31 36 41 43 41 37 36 32 27 24 24 23 19 16 14 13 11 8 6 4 2 1 1 2 2 2 2 3 4
1 2 3 3 3 3 5 8 15 19 19 22 23 23 27 31 34 37 38 37 36 34 30 24 21 19 17 15 13 11 8 7 5 4 3 2 1 1 1 1 0 0 2 3
2 3 3 3 4 6 9 16 23 27 26 26 27 27 28 30 31 31 31 32 33 31 27 23 19 15 11 10 10 8 5 4 2 2 2 1 0 0 0 0 0 0 1 2
1 1 2 3 4 8 14 21 28 31 30 29 29 29 27 26 25 25 25 25 26 25 22 20 17 13 9 7 7 6 4 3 3 2 1 1 1 0 0 0 0 0 1 1
0 0 1 3 7 12 18 25 30 30 27 26 26 24 22 19 17 19 19 19 18 17 17 17 14 10 7 5 4 4 4 4 4 3 2 2 2 1 0 0 0 0 0 0
0 0 1 5 10 16 22 26 29 27 23 21 19 18 16 13 12 13 13 12 11 12 13 14 12 8 5 3 2 3 4 5 4 3 3 3 2 1 0 0 0 0 0 0
0 1 3 8 12 17 21 24 24 22 19 18 16 15 13 10 8 8 7 6 7 9 10 11 11 8 4 2 1 2 4 5 4 3 3 3 2 1 0 0 0 0 0 0
0 1 5 8 11 14 17 19 19 18 15 14 14 14 11 8 6 5 4 4 4 6 7 8 8 6 3 1 1 2 4 4 3 3 3 3 1 0 0 0 0 0 0 0
0 1 3 6 8 10 12 14 15 15 13 12 11 10 8 6 6 6 5 4 4 4 4 5 5 3 1 0 1 4 5 4 2 3 3 2 1 0 0 0 0 0 0 0
0 0 2 4 5 7 9 10 11 12 12 11 10 8 7 7 7 6 6 6 5 4 3 3 2 1 0 1 2 4 5 4 3 3 3 2 1 0 0 0 0 0 0 0
1 1 3 4 5 6 7 8 8 8 9 9 9 8 8 7 7 6 6 6 6 5 3 1 1 0 1 1 3 3 3 3 3 3 3 2 0 0 0 0 0 0 0 0
2 3 4 5 6 6 7 7 6 5 6 7 7 8 8 7 7 6 6 6 5 4 2 0 1 1 2 2 2 2 1 1 1 2 2 1 0 0 0 0 0 0 0 0
2 2 3 4 5 6 6 5 4 3 3 4 5 6 6 5 5 5 5 4 2 1 1 1 2 2 2 1 1 1 0 0 0 1 1 1 0 0 0 0 0 0 0 0
2 1 1 2 3 4 4 3 2 1 1 2 3 4 4 3 2 2 2 1 0 0 0 1 2 1 1 0 0 0 0 0 0 0 0 0 0 0 0 0 0 0 0 0
1 0 0 1 1 1 1 1 1 0 1 2 3 3 3 2 1 0 1 0 0 0 0 1 1 0 0 0 0 0 0 0 0 0 0 0 0 0 0 0 0 0 0 0
0 0 0 0 0 0 0 0 0 0 1 2 2 2 2 1 0 0 0 0 0 0 0 0 0 0 0 0 0 0 0 0 0 0 0 0 0 0 0 0 0 0 0 0
0 0 0 0 0 0 0 0 0 0 0 1 1 1 1 0 0 0 0 0 0 0 0 0 0 0 0 0 0 0 0 0 0 0 0 0 0 0 0 0 0 0 0 0
0 0 0 0 0 0 0 0 0 0 1 1 0 0 0 0 0 0 0 0 0 0 0 0 0 0 0 0 0 0 0 0 0 0 0 0 0 0 0 0 0 0 0 0
0 0 0 0 0 0 0 0 0 1 2 2 1 0 0 0 0 0 0 0 0 0 0 0 0 0 0 0 0 0 0 0 0 0 0 0 0 0 0 0 0 0 0 0
Wind_Speed
4 4 3 3 4 5 5 8 9 8 8 10 8 7 7 6 5 6 6 6 7 7 6 6 6 6 6 5 5 5 5 5 4 3 3 3 3 3 2 3 3 2 3 3
1 1 2 2 3 6 4 4 4 3 7 8 4 2 3 5 6 8 8 8 7 7 7 7 7 7 6 5 5 5 5 4 4 4 4 4 3 3 3 3 3 3 3 2
2 2 2 3 5 5 3 3 6 7 8 3 2 4 6 7 7 8 9 9 9 8 8 7 7 7 7 6 6 6 5 5 4 5 4 4 4 4 3 2 2 3 2 3
2 2 4 9 3 4 5 3 4 4 4 4 6 5 3 4 7 7 7 8 8 7 7 5 5 6 7 7 6 6 5 5 5 5 5 4 4 4 3 2 2 2 2 2
3 3 5 6 2 3 4 3 3 3 3 1 0 2 2 2 5 6 7 7 7 7 7 7 7 8 8 7 6 6 6 5 4 5 4 4 4 4 3 3 2 2 2 3
4 4 6 7 4 2 4 4 3 3 3 2 4 2 5 3 3 3 3 4 6 7 7 7 8 9 9 7 6 6 5 5 4 4 4 4 4 3 3 3 3 3 3 2
4 4 7 6 5 1 4 8 3 3 3 5 5 6 4 2 2 4 4 5 7 8 7 7 8 9 8 7 6 5 4 5 5 4 4 4 4 3 4 4 4 3 3 2
4 4 7 4 2 3 5 3 2 2 3 4 3 1 2 3 3 5 6 6 7 7 6 5 7 8 7 6 5 6 6 5 5 4 4 4 4 4 4 4 4 3 2 2
6 7 5 2 3 4 3 3 3 2 2 3 2 2 2 2 4 4 6 6 6 8 7 5 5 7 7 6 6 6 6 5 4 4 3 4 5 5 4 4 3 3 2 1
2 5 5 5 4 3 2 3 3 2 2 3 3 3 3 3 4 5 5 5 6 8 7 5 4 5 5 6 6 7 6 5 4 4 3 3 3 3 3 3 3 3 2 2
2 5 5 4 3 4 3 2 1 2 0 2 3 3 4 5 4 4 4 4 6 7 7 6 5 5 5 5 6 7 6 5 4 3 3 3 2 2 2 2 3 3 3 3
5 5 3 6 5 4 3 2 0 1 1 2 3 4 4 4 4 4 4 4 4 5 6 6 6 5 4 5 6 7 5 4 3 3 3 3 3 2 2 1 1 2 2 3
5 4 4 6 5 3 2 2 1 1 2 3 3 4 5 5 4 4 4 4 4 4 4 4 5 5 4 5 5 6 5 5 3 3 3 3 3 3 2 1 2 2 2 3
4 2 3 3 2 2 2 2 2 3 4 4 4 5 5 6 5 5 4 3 3 3 3 3 4 4 4 5 5 4 4 4 4 4 3 3 3 3 3 3 2 0 1 2
4 2 3 2 2 2 1 3 4 4 4 4 4 5 5 5 5 4 3 3 4 4 3 3 3 2 3 5 5 4 4 3 3 3 3 3 3 3 3 3 2 1 0 1
3 2 1 1 1 1 1 2 3 2 3 3 4 4 4 5 4 4 4 4 4 3 2 3 3 2 3 4 4 3 3 5 4 4 4 3 3 3 3 3 3 2 3 2
1 2 1 1 1 1 0 1 2 2 2 3 3 4 4 4 3 3 3 3 3 2 1 2 2 2 3 3 4 3 3 4 6 4 4 4 4 4 4 4 3 3 3 3
6 5 5 4 3 2 1 1 1 2 2 3 3 3 3 3 2 2 1 2 3 2 1 0 1 2 3 3 3 2 3 3 3 3 3 3 4 4 4 4 4 4 2 2
4 4 4 3 3 2 2 1 1 1 2 2 3 2 2 2 2 2 2 2 3 1 1 2 2 2 2 3 3 2 3 3 3 3 3 4 4 3 3 3 3 3 3 2
3 2 2 1 1 2 2 1 1 1 2 3 3 3 2 2 2 2 2 1 1 2 2 3 3 2 2 3 3 2 3 3 3 3 3 3 3 3 3 3 4 3 3 3
1 1 1 1 1 2 1 2 2 2 2 2 3 3 2 1 2 2 2 1 2 1 2 3 2 2 2 3 4 3 3 3 3 3 3 3 3 3 3 3 3 3 3 3
0 1 1 2 2 1 1 1 1 2 2 2 2 2 2 2 1 1 2 2 2 2 2 2 2 3 3 4 3 3 3 3 3 2 3 3 3 3 3 3 3 3 3 3
0 1 1 1 1 1 2 1 0 1 2 2 2 3 2 2 2 2 2 2 1 2 2 2 3 4 5 3 2 3 3 3 3 3 3 3 3 3 4 4 3 3 3 3
1 1 1 1 2 2 1 1 1 0 1 1 2 2 3 2 1 2 2 2 3 3 1 2 3 4 3 2 2 3 3 3 3 3 3 3 3 3 3 3 3 3 3 4
1 1 1 1 1 0 1 0 1 1 1 1 1 0 1 1 2 1 1 2 2 2 1 2 3 3 2 2 2 2 2 2 2 2 2 3 3 3 3 3 3 3 3 3
0 0 0 0 1 1 0 1 1 0 0 0 1 1 0 0 1 1 1 1 2 2 1 1 2 2 2 2 2 2 2 2 2 2 3 3 2 2 2 3 4 3 2 2
2 1 1 1 1 0 0 1 0 1 1 1 0 1 0 0 0 1 1 1 1 1 0 1 1 1 1 1 2 2 2 2 2 2 2 2 2 2 2 3 2 2 2 2
Wind_Direction
221 222 183 188 185 174 175 178 180 219 225 247 237 220 213 198 180 166 165 171 175 175 174 168 161 159 164 163 158 156 154 158 161 151 139 128 118 112 105 102 103 104 104 97
281 237 194 218 213 189 198 183 201 216 250 254 256 200 189 186 176 178 181 185 183 175 170 172 168 167 163 162 154 146 148 153 141 134 134 129 125 114 102 94 91 86 88 93
238 290 83 253 224 189 185 191 174 203 238 262 244 216 201 193 188 191 190 185 182 180 179 178 174 167 161 153 142 142 146 144 143 142 141 140 137 125 122 118 106 95 92 93
142 93 210 239 229 178 173 207 211 231 251 219 217 223 217 196 190 193 187 182 182 176 176 173 159 146 138 137 140 141 139 139 146 145 145 142 137 143 148 139 134 127 111 102
128 172 258 288 251 179 175 244 233 229 260 274 85 53 326 240 197 194 187 180 174 166 161 153 148 143 137 138 141 144 147 151 156 145 144 149 150 152 149 140 131 124 116 110
134 161 222 244 269 239 139 248 257 208 211 153 106 129 259 244 180 173 155 146 144 139 137 146 147 140 139 147 152 160 163 159 147 137 152 163 161 152 137 132 135 124 111 107
160 198 252 261 294 80 161 234 267 218 201 170 182 212 233 186 167 156 136 134 136 136 142 150 145 143 148 152 165 160 143 137 134 141 149 150 144 138 134 126 116 111 110 93
154 184 243 297 30 169 221 273 276 226 201 187 206 219 133 133 133 131 130 131 133 131 130 136 144 147 150 161 157 137 135 136 138 140 138 138 138 134 130 127 120 110 110 104
191 214 247 282 239 257 240 254 260 232 246 180 171 185 154 141 133 132 134 138 133 131 129 131 141 148 156 158 143 138 135 139 135 130 125 134 143 143 138 137 138 144 152 158
265 272 283 291 288 289 271 258 262 241 218 183 177 173 157 139 132 132 131 137 132 128 130 133 134 139 144 140 137 135 140 145 142 139 131 125 128 143 151 159 162 165 174 185
267 280 308 305 303 297 306 320 1 18 273 187 158 152 147 136 132 134 130 132 136 140 145 143 140 135 133 138 141 141 145 149 145 145 145 139 135 142 171 192 193 186 193 185
229 239 235 270 291 300 309 316 338 93 54 74 121 132 120 116 119 125 128 133 137 142 143 142 138 135 132 141 150 149 151 155 157 156 152 150 145 116 69 109 130 166 181 181
240 253 246 267 287 305 309 300 311 95 118 102 87 106 108 104 100 101 106 121 135 140 139 136 135 138 144 149 154 156 160 160 159 160 161 164 163 163 159 76 79 113 165 188
259 271 297 293 291 328 355 19 48 65 75 86 94 96 97 98 98 95 97 109 119 119 122 131 135 145 149 146 150 155 156 162 167 169 171 170 171 175 172 170 178 238 247 211
306 284 256 277 340 3 27 69 81 76 81 83 95 99 101 103 101 96 89 90 99 107 120 132 137 152 147 144 149 160 165 171 168 162 163 164 164 165 167 173 181 189 193 244
321 353 18 32 26 4 43 83 94 93 99 101 102 98 103 108 111 108 99 101 106 115 144 151 156 162 144 142 148 160 173 170 162 160 161 163 166 172 179 185 185 192 212 219
247 285 269 269 292 301 289 132 128 126 113 107 110 110 111 109 102 96 92 94 107 119 144 171 168 152 145 149 156 166 164 162 161 162 172 176 178 186 189 192 198 210 223 214
228 229 224 211 209 220 250 87 109 97 99 104 104 109 115 123 137 137 120 104 92 69 37 239 158 137 140 147 150 155 155 155 164 174 176 180 182 187 189 194 204 214 230 217
253 236 234 226 212 189 179 162 124 107 115 125 123 127 132 135 134 122 108 113 121 134 249 228 163 139 143 155 149 151 156 160 164 169 172 173 179 186 191 195 202 211 213 207
271 237 209 180 146 139 134 123 114 108 118 129 128 127 130 143 142 132 122 148 211 216 204 181 164 160 165 163 155 155 162 168 169 167 168 174 183 190 198 203 204 208 212 214
260 184 131 110 88 83 101 125 141 146 147 140 147 156 158 155 143 152 160 227 275 217 165 163 164 168 172 162 156 158 164 167 171 174 174 179 185 195 204 207 208 207 209 217
10 99 105 98 88 59 41 67 140 150 140 134 143 147 144 151 161 181 214 216 220 178 163 173 177 170 166 159 159 161 167 171 175 177 180 186 193 201 207 212 216 219 218 221
32 93 110 102 105 69 25 25 60 161 161 163 165 173 181 189 190 191 224 228 184 174 174 185 171 162 161 155 157 163 173 182 184 188 197 203 207 213 215 217 221 224 224 223
15 52 60 72 79 79 47 320 302 253 180 180 195 188 183 179 212 231 211 178 171 172 184 180 166 168 165 164 167 174 184 189 190 194 202 208 210 214 218 223 229 229 227 230
6 48 55 77 89 131 221 270 51 57 72 45 348 297 217 193 194 198 173 161 160 155 156 171 167 164 167 170 177 185 192 196 194 190 197 205 213 218 222 225 233 236 224 223
28 78 341 243 224 224 173 97 76 334 101 87 345 335 15 43 122 128 124 141 140 140 152 171 174 174 181 180 185 190 193 196 202 205 209 209 214 217 220 226 231 228 222 220
60 52 34 11 348 355 94 113 156 248 229 183 251 296 321 73 105 121 124 129 136 158 182 167 161 174 182 182 185 190 192 205 213 211 211 209 210 216 221 225 230 224 216 214